Probability
3 3 3 3 3 3 3 6 0 0 6 10 6 13 10 10 10 16 23 39 61 58 52 52 48 42 45 45 35 29 35 35 35 42 42 39 35 26 26 26 23 26 29
0 0 3 3 3 3 3 3 0 3 3 6 13 16 13 13 13 19 19 35 45 58 58 55 42 35 42 45 45 42 35 39 39 39 39 39 35 29 23 29 35 32 29
0 0 0 3 3 3 0 3 6 6 6 10 10 10 10 13 10 16 13 16 32 45 61 68 65 58 55 42 45 42 48 42 45 45 48 48 42 35 29 29 32 32 32
0 0 0 0 0 0 3 3 10 10 6 10 6 10 6 6 3 6 6 13 13 19 29 55 65 65 61 58 52 55 55 52 48 45 39 45 32 35 29 32 32 32 35
0 0 0 0 0 3 0 3 10 10 10 6 6 6 6 6 3 3 3 10 10 10 19 19 42 65 65 61 65 58 52 52 45 48 48 52 45 35 29 29 29 26 26
0 0 0 0 0 0 3 6 6 10 10 6 3 6 3 3 6 6 3 6 10 10 3 3 16 29 39 61 65 58 55 55 55 45 48 45 52 45 39 29 26 26 23
0 0 0 0 0 3 3 6 10 10 13 6 6 6 3 3 0 3 3 6 3 3 3 10 10 13 23 35 48 55 55 55 55 48 48 48 48 42 35 39 26 23 23
0 3 3 3 6 3 3 3 10 10 13 13 6 6 6 0 0 0 0 0 3 3 3 3 6 6 10 16 10 19 39 52 55 58 58 55 52 52 42 39 32 23 23
0 3 6 6 6 3 6 6 10 10 13 13 3 3 3 3 3 3 0 0 6 6 6 6 6 6 6 6 6 13 19 29 42 55 55 55 55 48 39 39 32 35 16
6 6 10 6 3 3 10 10 10 13 13 13 6 3 3 3 3 3 3 3 3 0 3 3 10 10 6 6 6 3 13 16 26 39 42 42 52 48 48 42 45 42 35
0 3 6 10 10 6 10 13 10 10 13 13 6 3 3 3 3 3 3 3 3 3 0 0 6 10 10 10 6 6 3 10 13 19 29 39 45 48 45 48 42 42 39
0 0 13 10 10 10 13 16 13 13 13 10 6 6 3 3 3 3 3 3 3 3 3 6 3 3 3 10 6 3 3 0 0 6 10 23 35 42 42 42 45 48 45
6 6 13 16 13 16 23 23 13 26 19 16 16 6 3 6 6 3 3 3 3 3 6 6 6 6 3 3 10 3 6 0 0 0 3 6 10 16 26 32 39 42 39
16 13 6 13 13 16 23 23 26 26 23 23 23 13 10 10 6 3 6 6 13 10 6 3 3 3 3 3 3 0 3 3 0 0 0 0 3 6 10 10 13 19 19
10 16 13 23 16 19 23 26 26 29 26 23 23 16 13 10 13 13 10 6 10 10 10 10 6 3 3 3 3 6 6 3 0 0 0 0 0 0 0 0 0 0 0
13 19 19 23 23 23 26 29 29 32 32 26 19 19 19 19 16 13 13 10 10 10 13 10 10 10 6 3 0 6 6 0 0 0 0 0 0 0 0 0 0 0 0
19 19 23 23 26 26 26 32 32 32 32 32 26 26 26 23 23 23 16 16 13 6 10 10 10 10 10 6 3 3 0 0 0 0 0 0 0 0 0 0 0 0 0
19 23 23 26 26 26 29 29 29 32 32 32 26 23 23 23 23 23 23 23 23 13 10 10 13 10 10 6 3 6 3 0 0 0 0 0 0 0 0 0 0 0 0
26 26 26 29 29 29 26 23 26 23 29 29 26 23 19 19 23 23 23 23 23 16 10 6 6 10 6 6 6 3 3 3 3 3 0 0 0 0 0 0 0 0 0
35 32 32 32 29 26 26 29 19 19 19 19 23 26 23 19 16 19 16 16 13 16 10 6 6 6 6 6 3 6 6 6 3 0 0 0 0 0 0 0 0 0 0
32 32 29 32 26 19 19 19 23 23 13 10 16 23 23 23 19 16 16 13 10 6 6 6 6 6 6 3 3 3 3 3 3 0 3 0 0 0 0 0 0 0 0
29 35 29 26 29 23 16 13 16 13 13 16 19 16 16 10 6 3 3 3 3 6 6 6 6 6 3 3 3 3 3 0 0 0 0 0 0 0 0 0 0 0 0
29 29 26 29 23 19 10 6 3 13 16 16 16 16 16 13 6 10 3 3 3 3 3 3 3 3 3 3 3 3 0 0 0 0 0 0 0 0 0 0 0 0 0
23 26 26 26 23 19 10 3 0 3 10 10 10 10 13 10 10 6 6 6 6 3 3 3 3 3 3 3 3 0 0 0 0 0 0 0 0 0 0 0 0 0 0
19 23 23 26 26 13 6 0 0 3 6 10 10 13 10 13 6 3 3 6 13 6 0 0 0 0 0 0 0 0 0 0 0 0 0 0 0 0 0 0 0 0 0
23 16 13 13 13 6 6 0 0 3 6 10 10 10 6 10 3 3 3 6 10 10 3 0 0 0 0 0 0 0 0 0 0 0 0 0 0 0 0 0 0 0 0
Height
5895 5896 5897 5897 5898 5899 5900 5901 5901 5902 5902 5902 5903 5903 5903 5902 5902 5902 5902 5902 5902 5902 5902 5901 5901 5901 5901 5900 5899 5899 5899 5898 5898 5898 5898 5898 5897 5897 5897 5897 5897 5897 5897
5896 5896 5897 5897 5898 5899 5900 5900 5901 5901 5902 5902 5902 5902 5902 5902 5901 5901 5901 5901 5901 5901 5901 5900 5900 5900 5899 5899 5898 5898 5897 5897 5897 5897 5897 5896 5896 5896 5896 5896 5896 5895 5895
5895 5896 5896 5897 5898 5898 5899 5900 5900 5901 5901 5901 5901 5901 5901 5901 5900 5900 5900 5900 5900 5899 5899 5899 5898 5898 5898 5897 5896 5896 5896 5896 5895 5895 5895 5895 5894 5894 5894 5894 5894 5894 5894
5895 5896 5896 5897 5897 5898 5898 5899 5899 5900 5900 5900 5900 5900 5900 5899 5899 5899 5899 5899 5898 5898 5898 5898 5897 5896 5896 5895 5895 5895 5894 5894 5894 5893 5893 5893 5892 5892 5892 5892 5892 5892 5892
5896 5896 5896 5897 5897 5897 5898 5898 5898 5899 5899 5899 5899 5899 5899 5898 5898 5897 5897 5897 5897 5897 5896 5896 5895 5894 5894 5893 5893 5893 5892 5892 5892 5891 5891 5890 5890 5890 5890 5889 5889 5889 5889
5896 5896 5896 5896 5896 5897 5897 5897 5897 5897 5897 5897 5898 5898 5897 5897 5896 5896 5896 5896 5895 5895 5894 5894 5893 5893 5892 5892 5891 5891 5890 5890 5889 5889 5888 5888 5888 5887 5887 5886 5887 5886 5886
5896 5896 5896 5896 5896 5896 5896 5896 5896 5896 5896 5896 5896 5896 5896 5895 5895 5894 5894 5894 5894 5893 5893 5892 5891 5891 5890 5890 5889 5889 5888 5888 5887 5886 5885 5885 5885 5885 5884 5884 5884 5884 5883
5896 5896 5896 5896 5895 5895 5895 5895 5895 5895 5895 5895 5895 5894 5894 5894 5893 5893 5893 5892 5892 5891 5891 5890 5889 5889 5888 5888 5887 5886 5886 5885 5884 5884 5883 5882 5882 5882 5881 5881 5881 5880 5880
5896 5896 5896 5896 5895 5895 5895 5895 5894 5894 5894 5893 5893 5893 5893 5892 5892 5892 5891 5891 5890 5889 5888 5888 5887 5887 5886 5885 5885 5884 5883 5882 5882 5881 5880 5879 5879 5878 5878 5877 5877 5877 5876
5896 5896 5895 5895 5895 5895 5894 5894 5893 5892 5892 5892 5892 5891 5891 5891 5890 5890 5890 5889 5888 5887 5886 5885 5885 5884 5883 5882 5882 5881 5880 5879 5878 5878 5877 5876 5876 5875 5874 5873 5873 5872 5872
5895 5895 5894 5894 5894 5893 5893 5892 5892 5891 5891 5891 5890 5890 5890 5889 5888 5888 5888 5887 5886 5885 5884 5883 5882 5881 5880 5879 5878 5878 5877 5876 5875 5874 5873 5872 5872 5870 5870 5869 5869 5868 5868
5894 5893 5893 5893 5892 5892 5892 5891 5891 5890 5889 5889 5888 5888 5887 5887 5886 5886 5885 5885 5884 5883 5881 5880 5880 5879 5877 5876 5875 5874 5873 5872 5871 5870 5869 5868 5867 5866 5866 5865 5864 5863 5863
5891 5891 5891 5891 5890 5890 5889 5889 5888 5888 5887 5887 5886 5885 5885 5884 5883 5883 5882 5882 5881 5880 5879 5877 5876 5875 5874 5873 5872 5871 5869 5868 5867 5866 5865 5864 5863 5862 5861 5860 5859 5858 5857
5890 5889 5889 5888 5888 5887 5887 5886 5886 5885 5885 5884 5883 5883 5882 5881 5880 5880 5879 5878 5877 5876 5875 5874 5872 5871 5870 5869 5867 5866 5865 5864 5862 5861 5860 5859 5858 5857 5855 5854 5853 5852 5852
5887 5887 5886 5886 5885 5885 5884 5883 5883 5882 5882 5881 5880 5879 5878 5878 5877 5876 5875 5874 5874 5872 5871 5870 5868 5867 5865 5864 5863 5861 5860 5859 5857 5856 5855 5853 5852 5851 5850 5849 5848 5846 5845
5884 5883 5883 5882 5882 5881 5881 5880 5879 5879 5878 5877 5877 5876 5875 5874 5873 5872 5871 5870 5869 5868 5866 5865 5863 5862 5860 5859 5857 5856 5855 5853 5852 5850 5849 5847 5846 5845 5844 5843 5841 5840 5839
5879 5879 5879 5878 5877 5877 5876 5876 5875 5875 5874 5873 5872 5871 5870 5869 5868 5867 5866 5865 5864 5862 5861 5859 5857 5856 5854 5853 5852 5850 5849 5847 5846 5845 5843 5841 5840 5838 5837 5836 5835 5833 5832
5874 5874 5873 5873 5873 5872 5872 5871 5871 5870 5869 5868 5867 5867 5866 5864 5863 5862 5860 5859 5858 5856 5855 5853 5851 5850 5848 5846 5845 5843 5842 5841 5839 5838 5836 5835 5833 5832 5830 5829 5828 5826 5825
5869 5868 5868 5867 5867 5867 5866 5865 5865 5864 5863 5862 5862 5861 5860 5858 5857 5856 5854 5853 5851 5850 5848 5846 5844 5843 5841 5839 5838 5836 5835 5834 5832 5830 5829 5828 5826 5825 5823 5822 5821 5819 5818
5862 5862 5861 5861 5861 5860 5860 5859 5858 5858 5857 5856 5855 5854 5853 5852 5851 5849 5848 5846 5844 5842 5840 5838 5837 5835 5833 5831 5830 5829 5828 5826 5824 5823 5822 5820 5819 5817 5816 5815 5814 5812 5811
5855 5855 5854 5854 5853 5853 5852 5852 5851 5851 5850 5849 5848 5847 5846 5845 5843 5842 5840 5838 5836 5834 5832 5830 5828 5827 5825 5823 5822 5821 5819 5818 5816 5815 5814 5812 5811 5809 5808 5807 5806 5805 5803
5847 5847 5846 5845 5845 5845 5845 5844 5844 5844 5843 5842 5841 5840 5839 5837 5836 5834 5832 5830 5828 5826 5824 5822 5821 5819 5817 5815 5813 5812 5811 5810 5809 5808 5806 5805 5803 5802 5800 5799 5797 5796 5795
5839 5838 5837 5837 5837 5837 5836 5836 5835 5835 5835 5834 5833 5832 5831 5830 5828 5826 5824 5822 5820 5818 5816 5814 5812 5810 5808 5806 5805 5803 5802 5801 5800 5799 5798 5797 5795 5794 5792 5790 5789 5788 5787
5830 5829 5829 5829 5829 5829 5828 5827 5827 5826 5826 5826 5825 5824 5823 5821 5820 5818 5816 5814 5812 5809 5808 5806 5804 5802 5800 5798 5796 5795 5793 5792 5792 5791 5790 5789 5787 5786 5784 5782 5781 5779 5778
5821 5821 5820 5820 5820 5820 5820 5819 5819 5818 5818 5817 5816 5815 5814 5813 5811 5809 5807 5805 5803 5801 5799 5797 5795 5793 5791 5789 5787 5786 5785 5784 5783 5782 5781 5780 5779 5777 5776 5774 5772 5770 5769
5812 5812 5812 5812 5812 5812 5811 5810 5810 5809 5809 5808 5807 5806 5805 5804 5802 5800 5798 5796 5794 5792 5790 5788 5786 5784 5781 5780 5778 5777 5776 5775 5774 5774 5772 5771 5770 5768 5767 5765 5763 5761 5760
Wind_Speed
5 5 5 5 5 4 4 3 2 2 1 1 1 1 2 3 3 3 3 3 3 4 4 4 4 5 5 6 5 5 4 4 5 5 5 5 5 5 5 5 5 5 5
5 4 5 5 5 5 4 3 3 3 2 2 3 3 3 4 4 4 5 4 5 5 5 5 6 6 7 7 6 5 5 6 6 6 6 6 6 6 6 6 6 7 7
4 4 4 4 5 5 4 3 4 3 3 3 4 4 5 5 5 5 6 6 6 7 7 8 8 8 8 8 7 7 7 7 7 7 8 8 8 8 8 8 9 9 9
4 3 4 3 3 4 4 4 4 4 4 5 5 5 5 6 6 6 7 7 8 8 8 9 9 9 9 9 9 8 8 8 9 9 10 10 10 10 10 10 10 11 11
3 3 3 2 3 3 4 4 4 4 5 5 5 6 6 7 7 7 7 7 7 8 8 9 9 9 9 9 9 9 10 10 10 10 11 11 11 11 11 11 11 11 11
2 2 2 1 1 1 2 3 4 5 5 6 6 6 7 7 7 6 7 7 7 7 8 8 9 9 10 10 10 10 10 10 11 11 12 12 12 12 11 11 11 11 12
2 1 1 1 1 1 2 3 4 5 5 6 6 7 7 7 6 7 8 8 8 8 8 8 9 9 10 11 11 11 11 11 12 12 12 12 12 12 13 13 12 12 13
1 1 0 0 1 1 2 3 4 5 5 6 7 7 7 7 7 7 7 7 8 9 9 9 9 9 10 10 11 11 12 12 12 12 12 12 13 13 14 14 14 14 13
1 2 2 2 2 2 2 2 3 3 4 5 6 7 7 7 7 7 8 8 8 9 9 9 10 11 11 11 12 12 12 12 13 13 13 13 13 13 14 15 15 15 15
1 2 3 3 3 3 4 4 4 4 4 5 6 6 7 7 7 8 8 8 9 9 10 11 11 12 12 12 12 13 14 14 14 14 14 15 15 16 16 17 17 17 17
3 3 4 4 5 5 5 5 5 5 6 6 7 8 8 8 8 8 8 9 10 11 11 12 13 13 14 14 14 14 15 15 15 15 16 17 17 17 17 17 18 18 18
4 5 5 5 6 6 7 7 7 7 7 7 8 8 9 9 9 9 9 10 11 12 13 14 14 14 14 15 15 15 15 16 17 17 17 17 18 18 18 18 19 19 19
6 7 7 8 8 8 8 9 9 9 9 9 9 10 10 10 10 11 11 12 13 13 14 15 15 15 16 16 16 17 17 18 19 19 18 19 19 19 19 19 19 20 21
9 9 9 10 10 10 10 11 11 11 11 12 12 12 12 12 12 13 13 14 14 15 15 16 17 17 17 17 17 18 19 19 20 20 20 21 21 21 21 21 21 21 22
11 12 11 12 12 12 12 12 12 12 13 13 13 14 14 14 14 15 16 16 16 16 16 17 18 18 18 19 19 20 21 21 21 21 21 21 22 22 22 22 22 23 24
14 14 14 14 14 14 14 14 14 14 14 14 15 15 16 16 16 17 18 18 18 18 18 19 20 20 20 21 21 22 22 22 22 22 23 23 23 23 23 23 23 24 24
16 16 16 16 16 17 17 16 16 15 16 16 17 17 18 18 19 19 19 20 20 20 20 21 21 22 23 23 23 23 24 24 24 24 24 24 24 24 24 25 25 24 24
19 19 19 19 19 19 19 19 19 18 19 19 20 20 20 21 21 21 22 22 23 23 23 23 23 24 24 25 25 25 26 26 26 27 26 26 26 26 26 26 26 24 24
22 22 22 22 22 22 22 22 22 21 21 21 21 22 22 23 23 23 24 24 25 25 26 25 25 25 26 26 26 27 28 28 28 28 28 28 28 27 27 26 26 25 24
25 25 24 25 25 25 24 24 24 23 23 23 23 24 25 25 26 26 26 26 27 27 27 27 27 27 28 28 28 28 29 29 28 28 28 28 28 28 28 27 27 26 26
26 27 27 27 27 27 27 26 26 26 26 26 26 26 26 26 27 28 28 28 28 29 28 27 27 28 29 29 30 29 29 29 29 28 27 27 27 28 29 28 27 27 27
27 28 28 28 28 28 29 28 28 28 28 27 27 27 28 29 28 29 29 29 29 29 29 28 28 29 29 30 31 30 30 29 28 28 27 26 27 27 28 28 28 28 28
28 28 29 30 30 29 28 29 28 28 28 28 29 29 29 30 29 29 29 29 29 29 29 29 29 30 30 30 30 30 30 29 28 28 28 28 27 27 27 28 28 28 29
29 29 29 30 29 29 30 30 30 30 30 30 30 30 30 30 30 30 30 30 30 30 30 30 31 31 31 30 30 29 29 29 28 28 28 28 28 28 29 29 29 29 29
30 30 30 30 29 30 31 31 31 31 31 32 32 32 31 31 31 32 31 31 31 31 31 31 31 31 31 30 30 30 30 29 29 29 29 28 29 29 30 30 30 30 29
30 31 30 29 29 29 31 32 32 31 31 32 32 32 32 32 32 32 32 31 31 31 32 31 31 31 32 31 31 31 31 30 29 29 29 30 30 30 30 30 30 30 30
Wind_Direction
154 155 159 161 161 163 166 173 169 175 186 215 278 294 301 300 295 291 280 283 284 282 281 281 290 294 303 292 294 307 303 296 298 296 293 287 284 286 288 285 280 281 278
165 161 165 175 177 180 186 196 208 212 228 255 275 284 296 294 295 288 277 267 269 274 279 280 282 285 293 289 288 294 296 295 288 287 284 281 280 284 283 281 282 279 277
165 170 169 180 191 196 207 215 226 232 244 263 270 269 278 286 287 280 275 268 268 273 276 282 282 283 287 284 282 288 289 288 283 281 278 280 281 280 277 275 275 272 273
156 166 171 189 204 212 219 226 236 242 252 263 267 267 271 277 287 280 274 270 272 279 280 288 284 283 285 285 282 282 283 284 283 280 278 276 277 276 275 273 272 270 271
151 160 169 192 214 223 224 225 235 247 257 261 271 271 268 276 290 289 279 275 282 284 284 288 285 284 286 285 287 283 280 282 286 281 279 277 275 274 274 274 272 270 270
135 157 175 203 234 236 229 229 240 248 257 265 270 272 271 273 281 283 283 280 286 292 291 291 288 285 287 288 286 283 282 282 282 282 278 273 273 272 274 275 275 273 270
103 124 120 199 227 242 253 260 257 256 259 263 263 268 269 268 274 280 281 282 292 298 296 295 296 290 287 288 287 285 283 281 281 284 282 276 273 271 274 274 273 274 272
119 136 101 340 284 277 294 276 264 263 265 263 258 264 269 271 278 290 290 292 295 296 297 296 297 294 293 289 287 286 282 279 281 283 287 280 277 273 273 274 274 274 274
252 251 261 276 287 301 322 331 310 304 290 276 268 275 284 282 283 288 289 290 296 296 294 294 291 290 288 289 286 284 285 283 282 283 284 282 279 278 276 275 276 277 277
250 264 269 271 276 281 290 295 302 293 288 296 295 292 296 293 293 295 293 289 295 299 297 297 294 291 290 290 289 287 286 286 285 284 283 281 281 280 280 277 276 277 279
265 268 275 270 273 277 280 282 289 288 285 288 292 293 293 290 287 289 290 290 294 298 298 299 300 298 296 293 292 290 288 288 290 287 284 281 281 282 283 282 280 279 279
279 280 281 274 271 277 279 279 281 285 282 285 288 289 287 287 285 286 288 291 294 295 296 297 299 299 298 295 292 290 289 289 289 290 288 286 284 283 282 283 282 280 279
275 277 281 281 279 275 276 276 278 280 280 282 283 285 288 285 284 285 287 289 290 291 293 295 297 298 298 295 292 289 289 289 288 288 287 288 288 285 283 282 283 281 279
276 276 281 278 278 279 279 278 277 278 278 279 281 284 285 283 282 284 287 289 290 290 290 292 294 297 296 294 291 290 290 290 289 288 287 288 289 287 285 284 283 283 281
280 279 279 279 278 280 284 281 281 281 280 282 282 282 282 282 282 282 285 287 288 289 289 291 293 294 294 293 291 290 289 289 291 291 289 288 288 287 285 284 284 285 284
284 283 281 281 279 280 286 286 284 282 283 285 286 286 285 286 286 285 285 286 287 287 287 289 291 292 293 292 291 290 289 289 289 291 289 287 286 285 286 286 286 287 285
282 280 281 283 281 281 283 284 282 280 282 283 284 284 286 287 287 287 288 288 288 288 287 288 289 288 290 291 291 290 289 288 287 289 289 287 285 285 285 286 287 288 286
282 280 280 280 280 282 283 281 281 280 281 283 284 284 285 286 286 286 287 288 288 289 289 288 287 288 288 288 289 289 288 287 286 287 287 286 286 285 285 285 285 286 286
281 281 277 277 279 280 281 280 279 280 281 282 282 283 284 285 285 286 287 287 287 287 288 286 286 286 286 287 288 288 289 288 286 285 285 286 286 285 284 284 284 285 287
279 279 276 274 275 276 277 277 278 279 280 280 280 282 283 285 285 286 287 287 287 287 287 286 286 287 287 287 287 287 288 288 287 287 287 285 285 284 284 283 283 284 286
276 276 275 273 273 273 273 274 275 277 279 279 280 282 284 285 286 286 287 287 287 288 289 287 288 290 289 287 286 286 286 286 287 286 287 285 284 284 284 284 282 283 284
276 275 273 272 273 273 272 273 272 276 279 279 280 280 283 284 285 287 288 289 288 289 288 288 288 289 289 287 286 286 285 285 286 286 286 285 286 284 283 282 282 283 284
276 276 273 272 272 275 273 272 274 275 277 279 280 280 281 282 284 287 288 289 289 290 290 290 289 289 289 288 287 286 285 285 285 285 284 285 286 286 286 284 283 283 284
274 275 275 273 274 273 272 273 273 274 275 277 278 279 279 281 284 286 287 288 289 289 289 289 289 289 289 288 285 285 284 283 282 284 286 287 286 286 286 286 286 284 284
274 275 276 276 274 274 272 273 273 273 274 275 276 277 281 281 283 285 286 287 287 287 288 288 289 288 288 286 284 284 284 283 282 283 285 286 286 287 286 286 285 285 284
275 275 276 277 276 274 275 277 274 275 275 275 276 278 282 283 282 283 286 286 285 285 286 287 288 288 287 285 284 284 283 282 283 284 285 286 286 287 287 287 286 286 286